CCA2675 ZUTF-ZGDY

Flight info

Callsign CCA2675
Flight time 1h 8m
Altitude 31100
Route UBRAB9G UBRAB DCT XYO DCT DYG
Aircraft A320/M-SDE3FGHIRWY/LB1

Departure

Time 2026-04-29 12:10
Airport Chengdu Tianfu International Airport (ZUTF)

Arrival

Time 2026-04-29 13:18
Airport Zhangjiajie Hehua International Airport (ZGDY)
Time Latitude Longitude Altitude Speed Heading
2026-04-29 11:52 30.31786 104.45552 1443 ft 0 kts 111°
2026-04-29 12:02 30.31787 104.45547 1443 ft 2 kts 111°
2026-04-29 12:02 30.31795 104.45526 1443 ft 3 kts 111°
2026-04-29 12:03 30.31802 104.45504 1443 ft 3 kts 111°
2026-04-29 12:03 30.31810 104.45482 1443 ft 3 kts 111°
2026-04-29 12:03 30.31817 104.45461 1443 ft 3 kts 111°
2026-04-29 12:03 30.31824 104.45440 1443 ft 2 kts 111°
2026-04-29 12:04 30.31826 104.45436 1443 ft 0 kts 111°
2026-04-29 12:06 30.31825 104.45442 1443 ft 3 kts 104°
2026-04-29 12:06 30.31841 104.45464 1443 ft 5 kts 18°
2026-04-29 12:07 30.31866 104.45479 1443 ft 4 kts 40°
2026-04-29 12:07 30.31875 104.45504 1443 ft 4 kts 79°
2026-04-29 12:07 30.31867 104.45541 1443 ft 6 kts 109°
2026-04-29 12:07 30.31848 104.45597 1443 ft 9 kts 111°
2026-04-29 12:08 30.31821 104.45677 1443 ft 12 kts 111°
2026-04-29 12:08 30.31785 104.45780 1443 ft 15 kts 112°
2026-04-29 12:08 30.31741 104.45906 1443 ft 18 kts 112°
2026-04-29 12:08 30.31688 104.46048 1443 ft 19 kts 129°
2026-04-29 12:09 30.31570 104.46023 1443 ft 19 kts 201°
2026-04-29 12:09 30.31477 104.46106 1443 ft 20 kts 115°
2026-04-29 12:09 30.31389 104.46356 1442 ft 62 kts 112°
2026-04-29 12:09 30.31139 104.47060 1441 ft 125 kts 112°
2026-04-29 12:10 30.30747 104.48169 1467 ft 168 kts 111°
2026-04-29 12:10 30.30308 104.49446 2032 ft 172 kts 112°
2026-04-29 12:10 30.29858 104.50745 2665 ft 178 kts 111°
2026-04-29 12:10 30.29742 104.52270 2939 ft 211 kts 75°
2026-04-29 12:11 30.30506 104.53853 3352 ft 240 kts 55°
2026-04-29 12:11 30.31613 104.55407 3922 ft 258 kts 48°
2026-04-29 12:11 30.32864 104.56909 4872 ft 261 kts 45°
2026-04-29 12:11 30.34144 104.58394 5888 ft 257 kts 45°
2026-04-29 12:12 30.35421 104.59889 6670 ft 267 kts 45°
2026-04-29 12:12 30.36738 104.61450 7444 ft 270 kts 45°
2026-04-29 12:12 30.38037 104.63013 8381 ft 271 kts 45°
2026-04-29 12:12 30.39358 104.64645 9000 ft 285 kts 47°
2026-04-29 12:13 30.40703 104.66385 9681 ft 294 kts 47°
2026-04-29 12:13 30.42056 104.68189 10421 ft 299 kts 49°
2026-04-29 12:13 30.43467 104.70072 10751 ft 321 kts 47°
2026-04-29 12:13 30.45019 104.72063 10969 ft 345 kts 46°
2026-04-29 12:14 30.46682 104.74161 11355 ft 359 kts 46°
2026-04-29 12:14 30.48391 104.76316 11993 ft 366 kts 46°
2026-04-29 12:14 30.50115 104.78506 12662 ft 371 kts 47°
2026-04-29 12:14 30.51858 104.80734 13344 ft 375 kts 47°
2026-04-29 12:15 30.53726 104.82871 13978 ft 379 kts 40°
2026-04-29 12:15 30.55712 104.84911 14572 ft 383 kts 40°
2026-04-29 12:15 30.57689 104.86942 15186 ft 386 kts 40°
2026-04-29 12:15 30.59702 104.89015 15808 ft 388 kts 39°
2026-04-29 12:16 30.61727 104.91103 16437 ft 391 kts 39°
2026-04-29 12:16 30.63766 104.93204 17045 ft 394 kts 39°
2026-04-29 12:16 30.65821 104.95323 17677 ft 396 kts 39°
2026-04-29 12:16 30.67882 104.97450 18340 ft 397 kts 39°
2026-04-29 12:17 30.69950 104.99585 18860 ft 400 kts 38°
2026-04-29 12:17 30.72030 105.01747 19355 ft 403 kts 40°
2026-04-29 12:17 30.73895 105.04219 19814 ft 411 kts 51°
2026-04-29 12:17 30.75353 105.07111 20291 ft 419 kts 62°
2026-04-29 12:18 30.76349 105.10321 20749 ft 426 kts 71°
2026-04-29 12:18 30.77184 105.13639 21186 ft 430 kts 71°
2026-04-29 12:18 30.78030 105.16992 21617 ft 434 kts 71°
2026-04-29 12:18 30.78883 105.20375 22056 ft 437 kts 71°
2026-04-29 12:19 30.79740 105.23783 22483 ft 441 kts 71°
2026-04-29 12:19 30.80290 105.27319 22888 ft 450 kts 85°
2026-04-29 12:19 30.80032 105.30960 23291 ft 457 kts 102°
2026-04-29 12:19 30.78940 105.34437 23668 ft 461 kts 118°
2026-04-29 12:20 30.77086 105.37482 23995 ft 463 kts 135°
2026-04-29 12:20 30.74612 105.39859 24332 ft 461 kts 152°
2026-04-29 12:20 30.71714 105.41386 24660 ft 457 kts 168°
2026-04-29 12:20 30.68608 105.41972 24991 ft 450 kts 183°
2026-04-29 12:21 30.65476 105.41983 25337 ft 451 kts 185°
2026-04-29 12:21 30.62334 105.41972 25683 ft 453 kts 185°
2026-04-29 12:21 30.59171 105.41966 26014 ft 456 kts 186°
2026-04-29 12:21 30.55995 105.41963 26362 ft 458 kts 186°
2026-04-29 12:22 30.52800 105.41961 26711 ft 460 kts 186°
2026-04-29 12:22 30.49631 105.41962 27053 ft 462 kts 186°
2026-04-29 12:22 30.46404 105.41964 27395 ft 465 kts 186°
2026-04-29 12:22 30.43167 105.41967 27731 ft 467 kts 186°
2026-04-29 12:23 30.39910 105.41972 28057 ft 469 kts 186°
2026-04-29 12:23 30.36639 105.41977 28374 ft 471 kts 186°
2026-04-29 12:23 30.33355 105.41980 28679 ft 473 kts 186°
2026-04-29 12:23 30.30061 105.41980 28974 ft 475 kts 186°
2026-04-29 12:24 30.26749 105.41977 29267 ft 477 kts 186°
2026-04-29 12:24 30.23424 105.41976 29554 ft 479 kts 186°
2026-04-29 12:24 30.20085 105.41975 29843 ft 481 kts 186°
2026-04-29 12:24 30.16740 105.41975 30177 ft 481 kts 186°
2026-04-29 12:25 30.13395 105.41979 30524 ft 480 kts 187°
2026-04-29 12:25 30.10053 105.41983 30816 ft 481 kts 187°
2026-04-29 12:25 30.03347 105.41984 31170 ft 482 kts 188°
2026-04-29 12:26 30.00004 105.41984 31219 ft 479 kts 188°
2026-04-29 12:26 29.93352 105.41984 31215 ft 477 kts 188°
2026-04-29 12:27 29.86714 105.41977 31215 ft 477 kts 188°
2026-04-29 12:27 29.80072 105.41982 31213 ft 477 kts 188°
2026-04-29 12:28 29.73430 105.41992 31210 ft 478 kts 188°
2026-04-29 12:28 29.66778 105.41990 31205 ft 478 kts 188°
2026-04-29 12:29 29.60177 105.41984 31206 ft 477 kts 188°
2026-04-29 12:29 29.53534 105.41981 31199 ft 477 kts 188°
2026-04-29 12:30 29.46890 105.41977 31178 ft 478 kts 188°
2026-04-29 12:30 29.40231 105.41979 31188 ft 479 kts 188°
2026-04-29 12:31 29.33564 105.41981 31184 ft 479 kts 188°
2026-04-29 12:31 29.26903 105.41989 31186 ft 479 kts 188°
2026-04-29 12:32 29.20240 105.41991 31155 ft 479 kts 188°
2026-04-29 12:32 29.13569 105.41983 31159 ft 480 kts 188°
2026-04-29 12:33 29.06884 105.41981 31167 ft 481 kts 188°
2026-04-29 12:33 29.00177 105.41989 31169 ft 482 kts 188°
2026-04-29 12:34 28.93465 105.41995 31170 ft 483 kts 188°
2026-04-29 12:34 28.86712 105.41993 31183 ft 487 kts 188°
2026-04-29 12:35 28.79929 105.41986 31185 ft 488 kts 188°
2026-04-29 12:35 28.73141 105.41981 31186 ft 488 kts 188°
2026-04-29 12:36 28.66356 105.41983 31183 ft 488 kts 188°
2026-04-29 12:36 28.59574 105.41987 31166 ft 487 kts 188°
2026-04-29 12:37 28.52802 105.41991 31177 ft 486 kts 188°
2026-04-29 12:37 28.46086 105.41995 31185 ft 486 kts 188°
2026-04-29 12:38 28.39328 105.41996 31184 ft 486 kts 188°
2026-04-29 12:38 28.32555 105.42167 31183 ft 495 kts 179°
2026-04-29 12:38 28.29186 105.43181 31191 ft 509 kts 162°
2026-04-29 12:39 28.26083 105.45187 31189 ft 520 kts 145°
2026-04-29 12:39 28.23535 105.48110 31193 ft 525 kts 127°
2026-04-29 12:39 28.21743 105.51715 31193 ft 526 kts 110°
2026-04-29 12:39 28.20819 105.55693 31186 ft 520 kts 93°
2026-04-29 12:40 28.20817 105.59745 31190 ft 511 kts 77°
2026-04-29 12:40 28.22292 105.67566 31190 ft 508 kts 71°
2026-04-29 12:41 28.23876 105.75381 31189 ft 509 kts 71°
2026-04-29 12:41 28.25462 105.83212 31211 ft 510 kts 71°
2026-04-29 12:42 28.27028 105.91073 31214 ft 511 kts 72°
2026-04-29 12:42 28.28585 105.98948 31224 ft 511 kts 72°
2026-04-29 12:43 28.30137 106.06834 31244 ft 513 kts 72°
2026-04-29 12:43 28.31691 106.14735 31236 ft 513 kts 72°
2026-04-29 12:44 28.33244 106.22636 31238 ft 513 kts 72°
2026-04-29 12:44 28.34789 106.30540 31238 ft 513 kts 72°
2026-04-29 12:45 28.37657 106.45233 31241 ft 513 kts 72°
2026-04-29 12:46 28.39192 106.53145 31246 ft 513 kts 72°
2026-04-29 12:46 28.40715 106.61056 31245 ft 513 kts 72°
2026-04-29 12:47 28.42238 106.68968 31253 ft 512 kts 72°
2026-04-29 12:47 28.43757 106.76876 31251 ft 513 kts 73°
2026-04-29 12:48 28.45271 106.84798 31251 ft 513 kts 73°
2026-04-29 12:48 28.46783 106.92726 31292 ft 513 kts 73°
2026-04-29 12:49 28.48292 107.00654 31278 ft 514 kts 73°
2026-04-29 12:49 28.49798 107.08592 31271 ft 513 kts 74°
2026-04-29 12:50 28.51299 107.16516 31265 ft 513 kts 74°
2026-04-29 12:50 28.52788 107.24452 31267 ft 513 kts 74°
2026-04-29 12:51 28.54274 107.32381 31263 ft 513 kts 74°
2026-04-29 12:51 28.55747 107.40267 31260 ft 513 kts 75°
2026-04-29 12:52 28.57222 107.48198 31257 ft 513 kts 74°
2026-04-29 12:52 28.58699 107.56138 31259 ft 513 kts 74°
2026-04-29 12:53 28.60178 107.64074 31266 ft 513 kts 74°
2026-04-29 12:53 28.61645 107.72019 31266 ft 513 kts 75°
2026-04-29 12:54 28.63100 107.79965 31302 ft 513 kts 76°
2026-04-29 12:54 28.64548 107.87917 31276 ft 513 kts 76°
2026-04-29 12:55 28.65995 107.95873 31272 ft 514 kts 75°
2026-04-29 12:55 28.67446 108.03835 31269 ft 514 kts 75°
2026-04-29 12:56 28.68895 108.11802 31270 ft 514 kts 76°
2026-04-29 12:56 28.70336 108.19770 31273 ft 514 kts 76°
2026-04-29 12:57 28.71769 108.27748 31218 ft 515 kts 76°
2026-04-29 12:57 28.72488 108.31747 30989 ft 515 kts 76°
2026-04-29 12:57 28.73205 108.35738 30747 ft 515 kts 76°
2026-04-29 12:57 28.73920 108.39736 30506 ft 515 kts 76°
2026-04-29 12:58 28.74633 108.43736 30274 ft 515 kts 77°
2026-04-29 12:58 28.75344 108.47732 30003 ft 514 kts 77°
2026-04-29 12:58 28.76054 108.51727 29731 ft 515 kts 77°
2026-04-29 12:58 28.76764 108.55727 29458 ft 515 kts 77°
2026-04-29 12:59 28.77472 108.59733 29194 ft 516 kts 77°
2026-04-29 12:59 28.78182 108.63736 28931 ft 516 kts 77°
2026-04-29 12:59 28.78893 108.67740 28694 ft 515 kts 77°
2026-04-29 12:59 28.79599 108.71732 28436 ft 513 kts 77°
2026-04-29 13:00 28.80300 108.75704 28175 ft 510 kts 77°
2026-04-29 13:00 28.80986 108.79610 27923 ft 508 kts 77°
2026-04-29 13:00 28.81673 108.83554 27533 ft 505 kts 77°
2026-04-29 13:00 28.82358 108.87485 26710 ft 505 kts 77°
2026-04-29 13:01 28.83041 108.91400 25948 ft 503 kts 76°
2026-04-29 13:01 28.83721 108.95307 25202 ft 500 kts 76°
2026-04-29 13:01 28.84396 108.99190 24455 ft 499 kts 76°
2026-04-29 13:01 28.85071 109.03066 23702 ft 498 kts 76°
2026-04-29 13:02 28.85742 109.06928 22987 ft 493 kts 76°
2026-04-29 13:02 28.86394 109.10707 22261 ft 478 kts 76°
2026-04-29 13:02 28.87019 109.14358 21628 ft 459 kts 76°
2026-04-29 13:02 28.87618 109.17855 21063 ft 441 kts 76°
2026-04-29 13:03 28.88199 109.21236 20525 ft 431 kts 76°
2026-04-29 13:03 28.88778 109.24589 19985 ft 429 kts 76°
2026-04-29 13:03 28.89350 109.27915 19458 ft 426 kts 75°
2026-04-29 13:03 28.89920 109.31217 18941 ft 423 kts 76°
2026-04-29 13:04 28.90488 109.34497 18384 ft 421 kts 76°
2026-04-29 13:04 28.91051 109.37762 17801 ft 417 kts 76°
2026-04-29 13:04 28.91607 109.40998 17247 ft 414 kts 76°
2026-04-29 13:04 28.92155 109.44208 16693 ft 410 kts 77°
2026-04-29 13:05 28.92695 109.47394 16137 ft 408 kts 77°
2026-04-29 13:05 28.93229 109.50562 15562 ft 406 kts 77°
2026-04-29 13:05 28.93760 109.53726 14983 ft 405 kts 77°
2026-04-29 13:05 28.94292 109.56874 14403 ft 403 kts 78°
2026-04-29 13:06 28.94825 109.60014 13798 ft 402 kts 78°
2026-04-29 13:06 28.95354 109.63136 13227 ft 398 kts 78°
2026-04-29 13:06 28.95869 109.66192 12629 ft 384 kts 78°
2026-04-29 13:06 28.96361 109.69120 12038 ft 366 kts 78°
2026-04-29 13:07 28.96822 109.71867 11497 ft 349 kts 78°
2026-04-29 13:07 28.97269 109.74528 10966 ft 334 kts 78°
2026-04-29 13:07 28.97693 109.77044 10787 ft 310 kts 78°
2026-04-29 13:07 28.98088 109.79397 10471 ft 296 kts 78°
2026-04-29 13:08 28.98472 109.81693 10217 ft 292 kts 77°
2026-04-29 13:08 28.98846 109.83942 10065 ft 286 kts 78°
2026-04-29 13:08 28.99218 109.86167 9928 ft 285 kts 77°
2026-04-29 13:08 28.99593 109.88383 9801 ft 284 kts 77°
2026-04-29 13:09 28.99967 109.90589 9665 ft 283 kts 78°
2026-04-29 13:09 29.00338 109.92798 9406 ft 283 kts 78°
2026-04-29 13:09 29.00704 109.95000 9000 ft 282 kts 78°
2026-04-29 13:09 29.01066 109.97198 8578 ft 281 kts 78°
2026-04-29 13:10 29.01428 109.99387 8183 ft 279 kts 78°
2026-04-29 13:10 29.01787 110.01553 7789 ft 278 kts 78°
2026-04-29 13:10 29.02144 110.03708 7418 ft 275 kts 79°
2026-04-29 13:10 29.02499 110.05850 7073 ft 272 kts 79°
2026-04-29 13:11 29.02851 110.07976 6672 ft 272 kts 79°
2026-04-29 13:11 29.03199 110.10078 6308 ft 268 kts 79°
2026-04-29 13:11 29.03542 110.12161 5794 ft 263 kts 79°
2026-04-29 13:11 29.03834 110.14167 5390 ft 247 kts 85°
2026-04-29 13:12 29.03997 110.16007 5331 ft 221 kts 79°
2026-04-29 13:12 29.04307 110.17642 5244 ft 201 kts 75°
2026-04-29 13:12 29.04634 110.19108 5169 ft 180 kts 75°
2026-04-29 13:12 29.04931 110.20428 4966 ft 164 kts 75°
2026-04-29 13:13 29.05204 110.21640 4761 ft 151 kts 75°
2026-04-29 13:13 29.05457 110.22764 4542 ft 142 kts 75°
2026-04-29 13:13 29.05697 110.23828 4340 ft 140 kts 76°
2026-04-29 13:13 29.05940 110.24910 4140 ft 139 kts 76°
2026-04-29 13:14 29.06180 110.25975 3945 ft 138 kts 75°
2026-04-29 13:14 29.06419 110.27041 3753 ft 139 kts 76°
2026-04-29 13:14 29.06659 110.28108 3554 ft 139 kts 76°
2026-04-29 13:14 29.06897 110.29169 3362 ft 139 kts 76°
2026-04-29 13:15 29.07138 110.30244 3159 ft 140 kts 76°
2026-04-29 13:15 29.07382 110.31333 2951 ft 140 kts 76°
2026-04-29 13:15 29.07620 110.32391 2759 ft 139 kts 77°
2026-04-29 13:15 29.07862 110.33472 2548 ft 138 kts 77°
2026-04-29 13:16 29.08097 110.34523 2357 ft 139 kts 77°
2026-04-29 13:16 29.08337 110.35595 2153 ft 140 kts 76°
2026-04-29 13:16 29.08576 110.36668 1956 ft 139 kts 77°
2026-04-29 13:16 29.08800 110.37742 1742 ft 138 kts 76°
2026-04-29 13:17 29.09045 110.38807 1484 ft 138 kts 76°
2026-04-29 13:17 29.09284 110.39862 1254 ft 136 kts 77°
2026-04-29 13:17 29.09524 110.40918 1070 ft 138 kts 75°
2026-04-29 13:17 29.09757 110.41975 897 ft 137 kts 76°
2026-04-29 13:18 29.10000 110.43028 719 ft 137 kts 75°
2026-04-29 13:18 29.10232 110.44048 637 ft 122 kts 76°
2026-04-29 13:18 29.10379 110.44727 631 ft 46 kts 76°
2026-04-29 13:18 29.10402 110.44834 638 ft 7 kts 76°
2026-04-29 13:19 29.10420 110.44917 638 ft 16 kts 75°
2026-04-29 13:19 29.10479 110.45063 637 ft 24 kts 47°
2026-04-29 13:19 29.10637 110.45179 635 ft 28 kts 353°
2026-04-29 13:19 29.10258 110.44173 633 ft 0 kts 77°
2026-04-29 13:20 29.10258 110.44172 633 ft 0 kts 77°
2026-04-29 13:20 29.10260 110.44185 638 ft 7 kts 77°
2026-04-29 13:20 29.10263 110.44199 634 ft 1 kts 77°